Location: Lombard
(41.8800°N, 88.0080°W)
Time: 12:57:56
(UTC-06:00)

Transit 4A - Pass Details

Date: 08 December 2023
Orbit: 870 x 973 km, 66.8° (Epoch: 03 March)

Event Time Altitude Azimuth Distance (km) Brightness Sun altitude
Rises 21:10:38 0° 267° (W) 3,662 11.5 -52.8°
Enters shadow 21:13:08 - 279° (W) 2,988 11.0 -53.3°
Reaches altitude 10° 21:14:23 10° 288° (WNW) 2,710 - -53.5°
Maximum altitude 21:18:05 16° 324° (NW) 2,300 - -54.1°
Drops below altitude 10° 21:21:47 10° 1° (N) 2,687 - -54.8°
Sets 21:25:30 0° 23° (NNE) 3,616 - -55.4°
